Regional Weather Roundup
Issued by NWS Sterling, VA

Home | Current Version | Previous Version | Graphics & Text | Print | Product List | Glossary On
Versions: 1 2 3 4 5 6 7 8 9 10 11 12 13 14 15 16 17 18 19 20 21 22 23 24 25 26 27 28 29 30 31 32 33 34 35 36 37 38 39 40 41 42 43 44 45 46 47 48 49 50
000
ASUS41 KLWX 241810
RWRLWX

REGIONAL WEATHER ROUNDUP
NATIONAL WEATHER SERVICE BALTIMORE MD/WASHINGTON DC
200 PM EDT FRI APR 24 2015

Note: "FAIR" indicates few or no clouds below 12,000 feet
with no significant weather and/or obstructions to visibility.
 TC=TEMPERATURE CELSIUS

 * =Non NWS site. Station does not report precipitation (e.g. rain,
    snow, etc.), thunder, or fog.

DCZ001-MDZ009-015-VAZ040>042-051-053>054-241900-
WASHINGTON METRO

CITY           SKY/WX    TMP DP  RH WIND       PRES   REMARKS
WASHINGTON NAT MOSUNNY   57  21  24 NW12G23   29.97F
DULLES         SUNNY     55  19  24 W24G33    29.96F
ANDREWS AFB    SUNNY     54  19  25 NW20G26   29.95F
FT BELVOIR     SUNNY     56  17  21 NW14G26   29.97F
QUANTICO       SUNNY     59  18  20 NW16G25   29.98F
COLLEGE PARK*  SUNNY     55  19  24 NW15G22   29.96F
LEESBURG*      SUNNY     55  28  35 W15G22    29.96F
GAITHERSBURG*  SUNNY     54  19  26 NW12G29   29.99F

$$

MDZ006>007-011-014-241900-
BALTIMORE METRO

CITY           SKY/WX    TMP DP  RH WIND       PRES   REMARKS
BWI AIRPORT    MOSUNNY   54  20  26 W17G30    29.94F
MD SCIENCE CTR   N/A     53  15  22 MISG      29.94F
MARTIN STATE   MOSUNNY   55  23  28 W14G25    29.95F
ANNAPOLIS      SUNNY     52  17  25 W14G23    29.94F
FORT MEADE*    SUNNY     54  19  26 W16G28    29.97F

$$

MDZ012-015-019>023-241900-
MARYLAND EASTERN SHORE

CITY           SKY/WX    TMP DP  RH WIND       PRES   REMARKS
OCEAN CITY     SUNNY     52  23  32 W13G22    29.93F
SALISBURY      SUNNY     52  20  28 NW20G25   29.95S
BAY BRIDGE AP*   N/A    N/A N/A N/A W10G23    29.95F
CAMBRIDGE*     SUNNY     54  19  26 W13G24    29.95F
EASTON*        MOSUNNY   55  25  30 NW13G26   29.98F

$$

MDZ017>025-241900-
SOUTHERN MARYLAND

CITY           SKY/WX    TMP DP  RH WIND       PRES   REMARKS
PATUXENT RIVER MOSUNNY   56  20  24 W21G28    29.96F
ST INIGOES     SUNNY     54  22  28 W16G30    29.96F
LEONARDTOWN*   SUNNY     54  14  20 W12G26    29.98F

$$

MDZ003>005-241900-
NORTH CENTRAL MARYLAND

CITY           SKY/WX    TMP DP  RH WIND       PRES   REMARKS
FREDERICK*     SUNNY     55  12  18 NW13G20   29.98F
HAGERSTOWN APT SUNNY     53  19  26 NW22G29   29.95F
WESTMINSTER*   SUNNY     52  10  19 W15G25    29.92F

$$

MDZ501>502-241900-
WESTERN MARYLAND

CITY           SKY/WX    TMP DP  RH WIND       PRES   REMARKS
OAKLAND*       SUNNY     43  19  39 NW18G30   29.95F
CUMBERLAND*    SUNNY     54  21  28 W9G21     30.02F

$$

VAZ025>031-241900-
SHENANDOAH VALLEY

CITY           SKY/WX    TMP DP  RH WIND       PRES   REMARKS
WINCHESTER*    SUNNY     55   7  14 W15G22    29.97F
FRONT ROYAL*   FAIR      55  18  22 NW13G23   29.95F
LURAY*         FAIR      59  21  23 NW12G21   29.97F
NEW MARKET*    FAIR      55  15  21 NW7G21    29.97F
STAUNTON*      SUNNY     58  15  18 NW13      29.98F
WAYNESBORO*    FAIR      56  13  17 W8        29.97F

$$

WVZ021-048>050-054>055-241900-
EASTERN WEST VIRGINIA PANHANDLE

CITY           SKY/WX    TMP DP  RH WIND       PRES   REMARKS
MARTINSBURG    SUNNY     56  19  23 NW10G24   29.96F
PETERSBURG*    SUNNY     55  13  19 W14G23    30.00F

$$

VAZ036>039-050-241900-
CENTRAL FOOTHILLS

CITY           SKY/WX    TMP DP  RH WIND       PRES   REMARKS
CHARLOTTESVILL SUNNY     58  16  19 VRB7G20   29.97F
CULPEPER*      SUNNY     59  18  20 W9G18     29.98F
ORANGE*        SUNNY     57  21  24 NW6       29.99F
GORDONSVILLE*  FAIR      56  20  24 N5G18     29.97F
WARRENTON*     FAIR      58  24  26 NW9       29.97F

$$

VAZ055>057-241900-
NORTH AND CENTRAL PIEDMONT

CITY           SKY/WX    TMP DP  RH WIND       PRES   REMARKS
FREDERICKSBRG* SUNNY     58  22  24 NW10G21   29.97F
STAFFORD*      SUNNY     55  16  21 W10G18    30.02F

$$

NCZ024-NYZ072-PAZ021-071-VAZ022-071-241900-
OTHER REGIONAL OBSERVATIONS

CITY           SKY/WX    TMP DP  RH WIND       PRES   REMARKS
NEW YORK CITY  CLOUDY    48  18  30 N9G23     29.86F
PHILADELPHIA   MOSUNNY   53  15  22 NW24G30   29.90F
PITTSBURGH     MOSUNNY   51  22  31 W15G26    30.02F
ROANOKE        MOSUNNY   61  17  18 W15G22    30.02F
RICHMOND       SUNNY     61  22  22 W13G21    29.98F
RALEIGH        MOSUNNY   64  32  30 W8G17     30.03F

$$

ANZ530>537-241900-
MARINE OBSERVATIONS

STATION/POSITION TIME  TEMP    WIND        PRES
                       AIR SEA DIR/SP/G
                 (UTC) (F)     (DEG/KT/KT) (MB)
THOMAS PT LIGHT  1800   50 53  300/ 22/ 26 1014.3F
BALT KEY BRIDGE  1700   48     300/ 14/ 20 1014.5F
COVE POINT       1700   48     340/ 13/ 15 1015.6F
LEWISETTA        1700   51 58              1015.4F
SOLOMONS ISLAND  1700      57                N/A
PINEY POINT      1700          320/ 22/ 24   N/A

$$




USA.gov is the U.S. government's official web portal to all federal, state and local government web resources and services.